Location: Kelshall
(52.0000°N, 0.0500°W)
Time: 01:12:37
(UTC+00:00)

Meteor 1-15 Rocket - Pass Details

Date: 21 January 2021
Orbit: 840 x 907 km, 81.2° (Epoch: 03 March)

Event Time Altitude Azimuth Distance (km) Brightness Sun altitude
Exits shadow 04:05:23 27° 21° (NNE) 1,605 5.8 -34.8°
Drops below altitude 10° 04:07:53 10° 16° (NNE) 2,520 6.9 -34.4°
Sets 04:10:21 0° 15° (NNE) 3,472 7.7 -34.0°
